Wind_Speed
55 55 55 54 54 55 55 55 55 54 52 51 51 50 51 51 51 50 49 49 49 48 48 48 48 48 47 45 45 45 45 44 44 44 45 43 42 41
53 52 51 51 51 51 51 51 51 50 49 48 49 48 48 48 48 47 47 47 46 46 46 46 46 47 46 45 46 44 44 44 43 43 42 40 40 42
50 49 47 47 47 47 47 46 46 46 46 45 45 45 46 44 43 43 44 45 44 44 44 44 43 43 43 43 43 43 43 43 42 41 39 40 40 42
46 45 44 44 43 43 42 43 42 43 42 41 42 41 42 41 40 40 41 42 42 41 41 41 40 40 40 39 39 41 41 41 40 39 38 39 41 42
43 43 42 42 41 40 39 38 39 39 39 39 39 39 38 38 39 38 39 39 40 39 39 39 39 39 37 36 37 37 37 38 38 38 38 39 40 41
40 40 40 40 38 37 35 35 35 35 36 37 37 35 36 36 37 36 35 37 38 37 36 36 36 35 34 33 34 34 35 36 37 37 38 38 39 40
37 37 37 36 35 34 34 33 33 33 34 35 34 33 33 34 34 34 35 35 35 35 34 34 32 32 31 31 32 33 34 34 35 35 36 38 39 40
35 34 34 34 34 33 33 33 32 32 32 32 32 32 31 31 33 33 33 34 33 33 32 31 31 31 32 32 32 34 33 34 34 34 36 37 38 39
32 30 30 31 31 31 31 31 31 30 30 31 31 31 31 30 30 30 32 31 29 28 29 29 29 29 30 31 33 33 32 32 32 34 35 36 37 39
30 28 27 28 29 29 30 29 29 29 30 29 28 28 29 28 27 28 29 28 27 27 27 27 27 28 28 29 30 29 29 31 32 33 34 35 37 37
26 25 24 25 27 27 28 27 27 27 27 27 28 27 27 28 28 28 27 26 26 25 25 25 26 27 28 27 27 28 28 29 30 31 32 34 34 33
24 24 23 24 25 26 26 25 25 24 24 25 26 27 27 27 26 26 26 25 24 23 23 23 25 26 25 25 25 26 26 27 28 29 30 31 31 30
22 23 23 23 24 24 24 24 24 24 24 25 25 26 27 26 25 24 23 22 22 22 22 22 23 23 23 23 23 24 25 25 26 27 28 28 27 28
22 23 23 23 24 23 24 24 24 24 23 24 24 24 24 24 23 22 22 21 21 21 21 21 21 21 21 21 22 23 24 25 25 25 26 26 26 27
20 21 22 22 23 23 23 23 23 22 22 22 22 22 22 23 22 21 21 20 20 19 19 19 20 20 21 21 21 21 22 22 23 23 24 24 25 26
18 19 20 20 21 22 22 22 22 21 22 21 20 20 21 22 21 20 20 19 19 18 17 18 19 19 19 20 20 19 20 20 21 21 22 23 23 24
17 18 19 20 20 20 20 21 21 21 21 21 20 19 19 20 19 18 17 17 17 16 16 16 17 17 18 18 18 18 18 19 19 19 20 20 21 21
16 18 19 20 19 19 20 20 20 20 20 19 18 17 17 17 17 16 15 15 15 15 15 15 15 16 16 16 16 16 16 16 17 18 18 18 19 19
16 17 19 19 18 18 19 19 19 19 18 17 17 17 16 16 15 14 13 13 13 14 14 13 13 13 14 14 15 15 15 15 15 15 15 16 17 17
17 17 18 18 17 18 18 18 19 18 17 16 16 16 15 14 13 12 12 12 12 12 12 11 10 11 12 13 13 13 13 12 11 12 13 14 15 15
18 18 18 18 17 18 18 18 18 17 17 16 16 15 14 13 12 12 11 11 11 11 10 9 9 9 10 11 11 10 9 9 9 10 12 13 14 13
19 18 19 18 18 17 17 17 17 17 16 15 15 14 13 12 11 11 11 10 10 10 9 8 8 8 9 9 8 7 6 6 6 9 11 12 12 10
20 19 19 18 18 17 16 16 16 16 15 15 15 14 12 11 10 10 10 10 9 9 8 7 7 7 7 6 5 5 4 4 5 8 10 10 9 9
Wind_Direction
270 269 268 267 266 264 262 261 260 259 255 252 250 251 251 251 254 256 255 255 254 255 257 259 260 262 265 267 268 270 274 278 281 283 285 288 290 292
269 268 267 266 265 264 261 260 259 258 255 250 247 249 249 251 252 254 254 253 253 253 256 258 259 260 264 265 267 269 274 278 281 283 285 288 289 292
269 267 265 265 264 263 261 258 257 256 255 249 245 245 246 248 249 252 251 252 251 253 255 257 258 261 263 265 267 269 273 276 279 282 285 287 289 293
267 264 263 263 264 262 260 256 255 253 252 246 242 242 243 245 249 251 250 250 249 253 255 255 256 259 263 265 269 271 273 276 280 281 283 286 289 292
265 262 261 262 261 260 257 253 251 249 249 246 240 241 242 245 246 250 250 249 251 253 255 256 255 259 263 266 270 272 275 278 280 280 282 286 290 293
265 262 259 259 258 256 253 249 246 246 245 241 238 241 243 244 246 248 249 249 250 253 255 255 257 259 262 266 270 273 276 278 279 280 284 288 291 295
263 259 256 256 255 253 248 244 242 242 240 238 238 239 241 243 244 246 248 249 249 250 253 256 257 258 261 265 270 274 276 277 280 281 285 289 293 296
260 256 253 254 253 248 243 240 239 238 239 238 238 238 239 242 242 244 246 246 247 249 250 252 254 259 262 265 269 275 276 277 279 282 287 291 295 298
256 251 250 251 249 244 239 236 234 236 237 236 236 237 238 240 241 243 244 243 244 247 248 250 254 259 263 267 272 275 275 279 282 285 287 292 297 299
250 247 249 246 244 239 233 231 233 234 235 234 234 236 238 240 244 244 241 241 241 244 247 249 253 257 262 268 274 276 278 281 284 287 291 295 298 301
243 243 242 238 238 235 232 230 230 231 230 231 232 236 239 240 240 239 238 240 241 243 246 248 253 260 264 270 274 276 279 281 285 290 295 299 302 304
239 239 237 236 236 233 229 228 228 227 228 230 233 236 237 237 237 237 237 240 240 241 245 250 258 262 267 271 274 276 280 284 289 294 299 303 305 307
238 235 233 234 231 228 225 223 223 225 228 231 233 233 234 236 235 234 235 237 239 242 249 253 258 263 268 271 273 275 282 289 294 296 302 305 307 309
236 235 235 232 227 225 222 221 223 226 226 227 228 229 231 231 230 231 234 239 242 245 249 253 257 262 267 271 275 279 284 290 295 299 304 307 309 311
235 233 230 228 225 222 220 221 224 224 222 221 223 226 227 228 230 232 237 240 241 244 248 252 257 262 267 272 276 281 285 290 296 300 306 309 311 313
227 224 221 217 217 218 217 219 219 219 218 218 220 223 225 228 231 236 239 240 242 247 251 254 260 263 266 273 276 282 286 291 296 301 307 311 314 318
217 214 211 208 209 213 215 215 213 212 212 214 217 221 226 229 231 233 235 240 246 250 254 255 257 262 268 273 278 283 286 292 296 302 308 313 318 322
214 212 207 204 207 210 210 208 208 208 209 213 216 218 221 224 228 233 238 242 245 249 250 254 261 267 271 273 278 282 286 293 299 305 310 316 321 324
208 205 203 201 204 206 203 203 206 207 208 211 214 215 220 226 230 235 238 241 245 247 249 255 262 265 268 273 279 284 290 297 301 307 313 319 324 326
203 200 199 198 199 198 197 201 203 205 206 208 210 214 221 225 228 233 236 240 243 246 249 253 256 263 268 274 280 285 291 296 301 310 317 324 327 328
199 195 196 197 195 192 193 197 200 200 200 204 209 216 221 224 228 229 231 234 237 241 240 246 258 264 267 275 280 283 287 293 305 316 323 327 329 332
196 194 193 191 189 190 192 195 196 196 200 206 212 215 215 216 220 224 229 230 230 232 236 248 259 265 270 276 277 275 278 292 312 325 331 335 339 343
193 191 189 187 186 187 189 190 191 195 200 204 207 208 208 212 216 221 222 219 221 229 241 252 259 266 266 268 266 254 262 291 320 333 341 349 359 4
Height
5565 5565 5565 5566 5567 5569 5571 5574 5578 5582 5589 5592 5596 5599 5602 5607 5610 5613 5617 5621 5624 5627 5630 5632 5634 5635 5636 5636 5636 5636 5635 5634 5633 5630 5627 5623 5620 5617
5549 5550 5550 5551 5552 5554 5556 5559 5562 5566 5572 5578 5582 5586 5589 5593 5597 5601 5605 5609 5611 5614 5616 5619 5621 5623 5624 5624 5624 5624 5624 5623 5622 5619 5616 5613 5610 5607
5535 5535 5536 5537 5539 5540 5543 5546 5549 5552 5558 5565 5569 5573 5577 5582 5586 5589 5592 5596 5600 5602 5605 5607 5610 5611 5612 5613 5613 5613 5613 5612 5611 5609 5606 5604 5601 5597
5521 5521 5523 5524 5526 5528 5530 5534 5537 5541 5545 5552 5557 5561 5566 5570 5574 5577 5581 5584 5588 5591 5594 5596 5598 5600 5601 5602 5602 5602 5603 5602 5600 5598 5597 5594 5591 5587
5508 5509 5511 5512 5515 5517 5519 5523 5527 5530 5535 5540 5546 5551 5555 5559 5563 5567 5570 5574 5577 5580 5583 5585 5588 5590 5591 5592 5593 5593 5593 5592 5591 5589 5587 5584 5581 5577
5496 5498 5499 5501 5503 5506 5509 5513 5517 5521 5525 5530 5536 5541 5546 5549 5553 5557 5561 5564 5568 5571 5573 5576 5578 5580 5582 5583 5584 5583 5583 5582 5581 5580 5577 5575 5572 5567
5486 5487 5489 5491 5493 5496 5500 5504 5508 5512 5517 5522 5527 5532 5536 5540 5545 5548 5552 5556 5559 5561 5564 5567 5570 5572 5573 5574 5574 5574 5574 5573 5572 5570 5568 5565 5562 5558
5476 5478 5479 5482 5484 5487 5491 5496 5500 5504 5509 5514 5519 5524 5529 5533 5536 5540 5544 5547 5551 5554 5556 5559 5561 5563 5565 5566 5566 5566 5565 5564 5563 5561 5559 5556 5553 5548
5467 5469 5471 5473 5475 5479 5483 5488 5493 5498 5503 5507 5513 5517 5522 5526 5529 5533 5536 5540 5543 5546 5548 5551 5553 5555 5557 5558 5557 5557 5556 5556 5554 5553 5550 5547 5543 5539
5458 5461 5463 5466 5469 5472 5477 5482 5486 5491 5496 5501 5506 5510 5515 5518 5522 5525 5528 5532 5535 5538 5541 5543 5545 5547 5549 5549 5549 5549 5548 5547 5546 5544 5541 5538 5534 5530
5451 5454 5457 5460 5463 5467 5471 5476 5481 5486 5490 5495 5499 5503 5508 5512 5515 5518 5521 5525 5528 5531 5534 5536 5539 5540 5541 5542 5541 5541 5540 5540 5538 5536 5533 5529 5525 5521
5445 5448 5451 5454 5458 5462 5467 5472 5476 5481 5485 5489 5493 5498 5501 5505 5508 5512 5515 5519 5522 5525 5527 5529 5531 5533 5534 5535 5535 5534 5533 5532 5531 5528 5525 5521 5517 5513
5440 5443 5446 5449 5453 5457 5462 5467 5471 5476 5480 5484 5488 5492 5496 5499 5503 5506 5510 5513 5516 5519 5521 5523 5525 5526 5528 5528 5528 5527 5527 5525 5523 5521 5518 5514 5510 5506
5435 5438 5441 5445 5448 5453 5457 5462 5467 5471 5475 5479 5483 5487 5491 5495 5499 5502 5505 5507 5510 5513 5515 5517 5519 5520 5521 5522 5521 5521 5520 5518 5516 5514 5511 5507 5504 5500
5430 5434 5437 5441 5444 5449 5453 5458 5462 5466 5470 5474 5479 5483 5487 5491 5494 5497 5500 5502 5505 5507 5509 5511 5513 5514 5514 5515 5515 5514 5513 5512 5509 5507 5505 5501 5497 5493
5427 5430 5434 5437 5441 5446 5450 5454 5458 5463 5467 5471 5475 5479 5483 5486 5489 5492 5495 5497 5499 5501 5503 5505 5507 5508 5508 5509 5508 5508 5507 5505 5503 5501 5499 5495 5492 5488
5424 5428 5431 5435 5439 5443 5447 5451 5455 5459 5463 5467 5472 5476 5479 5482 5485 5488 5490 5492 5494 5497 5498 5500 5501 5502 5503 5503 5502 5502 5501 5500 5498 5496 5493 5490 5487 5483
5422 5426 5429 5433 5437 5441 5445 5449 5453 5457 5461 5465 5469 5472 5476 5479 5481 5484 5486 5488 5490 5492 5493 5495 5496 5496 5497 5497 5497 5496 5495 5494 5493 5491 5488 5486 5483 5479
5420 5424 5427 5431 5435 5439 5443 5447 5451 5455 5459 5462 5466 5469 5472 5475 5477 5480 5482 5484 5486 5487 5489 5490 5490 5491 5492 5492 5492 5491 5491 5490 5488 5487 5484 5482 5479 5476
5418 5422 5426 5429 5433 5437 5441 5445 5449 5453 5457 5460 5463 5466 5469 5472 5474 5477 5479 5480 5482 5483 5485 5486 5486 5487 5488 5488 5488 5487 5486 5486 5485 5483 5481 5479 5476 5473
5417 5420 5424 5428 5431 5435 5439 5443 5447 5451 5454 5457 5461 5464 5466 5469 5471 5473 5475 5477 5478 5480 5481 5482 5482 5483 5483 5484 5484 5484 5483 5483 5482 5481 5479 5476 5474 5471
5415 5419 5422 5426 5430 5434 5438 5441 5445 5448 5451 5455 5458 5460 5463 5466 5468 5470 5472 5474 5476 5477 5478 5479 5479 5480 5480 5481 5481 5481 5481 5480 5480 5478 5476 5474 5472 5469
5413 5417 5421 5425 5429 5432 5436 5439 5443 5446 5449 5452 5455 5458 5461 5464 5466 5468 5470 5471 5473 5474 5475 5476 5476 5477 5477 5478 5478 5478 5479 5479 5478 5477 5475 5473 5470 5468